Regional Weather Roundup
Issued by NWS

Home | Current Version | Previous Version | Text Only | Print | Product List | Glossary On
Versions: 1 2 3 4 5 6 7 8 9 10 11 12 13 14 15 16 17 18 19 20 21 22 23 24 25 26 27
000
ASUS44 KLIX 172313
RWRLA
LOUISIANA WEATHER ROUNDUP
NATIONAL WEATHER SERVICE NEW ORLEANS LA
500 PM CST SUN DEC 17 2017

NOTE: "FAIR" INDICATES FEW OR NO CLOUDS BELOW 12,000 FEET WITH NO
      SIGNIFICANT WEATHER AND/OR OBSTRUCTIONS TO VISIBILITY.
      SKY/WX - SKY CONDITION AND SIGNIFICANT WEATHER.
      TMP - AIR TEMPERATURE.    DP   - DEWPOINT TEMPERATURE.
      RH  - RELATIVE HUMIDITY.  PRES - PRESSURE.
      HX  - HEAT INDEX.         WCI  - WIND CHILL INDEX.

*  THESE STATIONS ARE NOT NWS OR FAA STATIONS AND ARE NOT UNDER
   NWS QUALITY CONTROL.

LAZ040-048-061>063-065-066-069-180000-
SOUTHEAST LOUISIANA

CITY           SKY/WX    TMP DP  RH WIND       PRES   REMARKS
N.O. INTL ARPT CLOUDY    68  68 100 S5        30.09F
N.O. LAKEFRONT CLOUDY    67  66  97 SE5       30.10S FOG
N.O. DOWNTOWN* CLOUDY    68  66  93 CALM      30.10F
RESERVE*       CLOUDY    68  65  92 SE5       30.09S
SLIDELL        CLOUDY    67  65  93 S3        30.09F
BATON ROUGE    MOCLDY    65  64  97 SE3       30.08R
BOOTHVILLE     LGT RAIN  65  65 100 NE6       30.10S VSB 1/4
BELLE CHASSE   MOCLDY    67  66  97 CALM      30.09S FOG
BOGALUSA*      LGT RAIN  67  64  90 MISG      30.09S
GALLIANO*      CLOUDY    67  64  91 CALM      30.10R
NEW ROADS*     MOCLDY    64  63  95 CALM      30.08R
GONZALES*      CLOUDY    65  65 100 CALM      30.07F
HAMMOND*       CLOUDY    64  63  94 S5        30.09R
HOUMA*         MOCLDY    66  66 100 E3        30.10R
PORT FOURCHON* CLOUDY    66  66 100 NE7       30.10S FOG

$$

LAZ041-044-053-054-180000-
SOUTHWEST LOUISIANA

CITY           SKY/WX    TMP DP  RH WIND       PRES   REMARKS
LAKE CHARLES   PTCLDY    65  60  84 CALM      30.06R
LAFAYETTE      CLOUDY    66  64  93 S3        30.07R
PATTERSON      CLOUDY    65  64  97 CALM      30.08S
SALT POINT       N/A     64  64 100 CALM      30.07R
NEW IBERIA     CLOUDY    65  62  90 S6        30.08R
CHENAULT AIRPK NOT AVBL

$$

LAZ027-028-180000-
CENTRAL LOUISIANA

CITY           SKY/WX    TMP DP  RH WIND       PRES   REMARKS
FORT POLK      PTCLDY    58  56  92 E5        30.07R
ALEXANDRIA INT CLOUDY    53  53 100 CALM      30.09R FOG
ALEXANDRIA     CLOUDY    56  55  97 NW3       30.09R

$$

LAZ001-002-180000-
NORTHWEST LOUISIANA

CITY           SKY/WX    TMP DP  RH WIND       PRES   REMARKS
SHREVEPORT     CLOUDY    49  49 100 CALM      30.10R FOG
BARKSDALE AFB  CLOUDY    48  48 100 CALM      30.11R
DTN SHREVEPORT CLOUDY    50  48  93 SE3       30.11R FOG

$$

LAZ014-016-180000-
NORTHEAST LOUISIANA

CITY           SKY/WX    TMP DP  RH WIND       PRES   REMARKS
MONROE         CLOUDY    50  49  96 CALM      30.11S FOG
TALLULAH       CLOUDY    53  53 100 N3        30.10S FOG

$$





USA.gov is the U.S. government's official web portal to all federal, state and local government web resources and services.